Date,TemperatureHighF,TemperatureAvgF,TemperatureLowF,DewpointHighF,DewpointAvgF,DewpointLowF,HumidityHigh,HumidityAvg,HumidityLow,PressureMaxIn,PressureMinIn,WindSpeedMaxMPH,WindSpeedAvgMPH,GustSpeedMaxMPH,PrecipitationSumIn
2013-3-1,43.7,37.7,33.0,33.8,31.0,28.1,92,77,62,29.69,29.53,15,1,15,0.00
2013-3-2,42.6,37.1,31.7,30.9,28.7,26.6,82,72,60,29.68,29.63,10,1,10,0.00
2013-3-3,43.4,35.9,31.8,32.4,28.9,25.7,92,76,62,29.65,29.57,11,1,11,0.00
2013-3-4,41.2,34.4,28.4,28.2,25.3,21.5,81,70,54,29.75,29.59,18,3,18,0.00
2013-3-5,32.2,31.6,31.4,24.7,24.5,24.1,76,75,73,29.79,29.75,5,1,5,0.00
2013-3-6,39.3,35.8,33.6,34.9,32.5,30.5,92,88,77,30.10,30.04,27,4,27,0.09
2013-3-7,34.6,32.2,30.1,31.5,29.4,27.8,91,89,82,30.06,29.98,20,4,20,0.16
2013-3-8,33.9,31.5,29.5,32.8,29.1,27.2,96,91,84,30.15,29.94,18,3,18,0.98
2013-3-9,53.2,36.0,27.0,34.3,27.7,22.8,89,74,43,30.36,30.15,16,1,16,0.00
2013-3-10,45.7,35.0,26.0,34.7,29.5,23.7,92,81,62,30.42,30.30,5,1,6,0.00
2013-3-11,53.9,41.6,33.8,40.6,35.8,30.6,92,81,55,30.33,30.16,12,2,12,0.00
2013-3-12,52.6,47.6,40.1,50.6,45.5,38.0,98,92,87,30.17,29.73,19,2,19,0.24
2013-3-13,53.6,43.0,34.4,48.2,32.4,23.1,93,69,38,29.79,29.70,15,2,15,0.00
2013-3-14,37.1,31.3,22.9,25.7,17.6,8.2,71,57,44,29.85,29.72,19,4,19,0.00
2013-3-15,41.9,29.3,20.2,25.7,13.8,9.5,67,54,33,29.88,29.65,16,3,16,0.00
2013-3-16,40.4,34.0,27.6,28.2,18.6,12.3,82,55,33,29.88,29.69,13,1,13,0.00
2013-3-17,41.6,31.8,25.1,19.6,14.1,7.3,72,49,30,30.32,29.88,16,2,16,0.00
2013-3-18,38.8,28.8,18.5,25.7,11.4,3.3,87,50,30,30.47,30.24,14,1,14,0.01
2013-3-19,35.7,32.2,28.5,33.6,30.0,25.6,92,92,86,30.23,29.61,15,2,15,1.01
2013-3-20,42.4,31.9,24.4,26.7,22.7,19.8,91,71,48,29.82,29.70,22,2,22,0.00
2013-3-21,36.9,30.4,24.5,28.9,23.5,19.1,92,76,52,29.83,29.62,6,1,6,0.00
2013-3-22,44.4,33.7,26.3,25.6,21.9,18.5,88,63,40,29.76,29.61,17,3,17,0.00
2013-3-23,43.9,35.0,28.4,25.7,22.6,19.9,78,61,43,29.81,29.66,22,4,22,0.00
2013-3-24,50.9,38.8,30.6,28.7,25.0,21.1,76,59,39,29.83,29.73,16,2,16,0.00
2013-3-25,43.7,37.1,30.6,33.8,29.7,25.0,81,75,60,29.77,29.51,12,1,12,0.00
2013-3-26,48.9,40.4,34.4,32.0,27.6,23.3,81,62,41,29.79,29.54,9,1,9,0.00
2013-3-27,56.6,42.8,30.9,32.6,26.7,21.8,73,54,35,29.87,29.75,9,0,9,0.00
2013-3-28,49.1,42.3,36.1,35.4,33.6,31.5,88,72,51,30.03,29.87,10,1,10,0.01
2013-3-29,58.1,46.4,36.6,38.3,33.3,30.7,83,62,37,30.06,29.97,14,1,14,0.00
2013-3-30,59.6,47.7,36.6,33.8,27.0,19.4,77,48,24,30.10,30.01,6,0,6,0.00
2013-3-31,62.7,46.7,30.9,40.0,29.3,22.3,82,54,27,30.12,29.79,4,0,4,0.01